TimeCDT,TemperatureF,Dew PointF,Humidity,Sea Level PressureIn,VisibilityMPH,Wind Direction,Wind SpeedMPH,Gust SpeedMPH,PrecipitationIn,Events,Conditions,WindDirDegrees,DateUTC
12:53 AM,57.0,46.0,67,30.22,10.0,ENE,5.8,-,N/A,,Overcast,60,2012-10-11 05:53:00
1:53 AM,57.0,46.9,69,30.20,10.0,NE,6.9,-,N/A,,Overcast,50,2012-10-11 06:53:00
2:53 AM,57.0,46.9,69,30.19,10.0,East,3.5,-,N/A,,Partly Cloudy,80,2012-10-11 07:53:00
3:53 AM,55.9,48.0,75,30.20,10.0,East,3.5,-,N/A,,Overcast,80,2012-10-11 08:53:00
4:53 AM,57.0,48.0,72,30.20,10.0,ESE,5.8,-,N/A,,Overcast,110,2012-10-11 09:53:00
5:53 AM,57.9,48.9,72,30.22,10.0,ENE,3.5,-,N/A,,Overcast,70,2012-10-11 10:53:00
6:53 AM,57.9,48.0,70,30.24,10.0,ENE,3.5,-,N/A,,Overcast,70,2012-10-11 11:53:00
7:53 AM,59.0,48.0,67,30.25,10.0,ENE,3.5,-,N/A,,Overcast,70,2012-10-11 12:53:00
8:53 AM,60.1,48.9,67,30.25,10.0,ESE,4.6,-,N/A,,Overcast,110,2012-10-11 13:53:00
9:53 AM,64.4,53.6,68,30.24,10.0,SE,6.9,-,N/A,,Mostly Cloudy,140,2012-10-11 14:53:00
10:53 AM,69.1,57.0,65,30.26,10.0,SSE,8.1,-,N/A,,Partly Cloudy,160,2012-10-11 15:53:00
11:53 AM,73.0,60.1,64,30.23,10.0,SSE,8.1,17.3,N/A,,Clear,160,2012-10-11 16:53:00
12:53 PM,79.0,64.0,60,30.22,10.0,WSW,12.7,-,N/A,,Partly Cloudy,250,2012-10-11 17:53:00
1:53 PM,-9999,-9999,N/A,30.18,-9999.0,North,-9999.0,-,N/A,,Unknown,0,2012-10-11 18:53:00
2:53 PM,-9999,-9999,N/A,30.17,-9999.0,North,-9999.0,-,N/A,,Unknown,0,2012-10-11 19:53:00
3:53 PM,-9999,-9999,N/A,30.16,-9999.0,North,-9999.0,-,N/A,,Unknown,0,2012-10-11 20:53:00
4:53 PM,-9999,-9999,N/A,30.15,-9999.0,North,-9999.0,-,N/A,,Unknown,0,2012-10-11 21:53:00
5:53 PM,-9999,-9999,N/A,30.14,-9999.0,North,-9999.0,-,N/A,,Unknown,0,2012-10-11 22:53:00
6:53 PM,-9999,-9999,N/A,30.15,-9999.0,North,-9999.0,-,N/A,,Unknown,0,2012-10-11 23:53:00
7:53 PM,71.6,66.2,83,30.16,-9999.0,SSE,3.5,-,N/A,,Unknown,150,2012-10-12 00:53:00
8:53 PM,70.0,66.0,87,30.19,-9999.0,SE,3.5,-,N/A,,Mostly Cloudy,130,2012-10-12 01:53:00
9:53 PM,69.1,64.9,87,30.20,-9999.0,ESE,3.5,-,N/A,,Clear,120,2012-10-12 02:53:00
10:53 PM,66.0,64.0,93,30.20,-9999.0,SSE,5.8,-,N/A,,Clear,150,2012-10-12 03:53:00
11:53 PM,69.1,64.9,87,30.19,-9999.0,SSE,6.9,-,N/A,,Clear,160,2012-10-12 04:53:00